TimeCST,TemperatureF,Dew PointF,Humidity,Sea Level PressureIn,VisibilityMPH,Wind Direction,Wind SpeedMPH,Gust SpeedMPH,PrecipitationIn,Events,Conditions,WindDirDegrees,DateUTC
12:15 AM,27.5,22.6,82,30.13,10.0,WNW,8.1,-,N/A,,Overcast,300,2013-03-02 06:15:00
12:35 AM,27.7,22.6,81,30.13,10.0,NW,6.9,-,N/A,,Overcast,310,2013-03-02 06:35:00
12:55 AM,28.4,23.0,80,30.13,10.0,NW,6.9,-,N/A,,Overcast,310,2013-03-02 06:55:00
1:15 AM,27.9,22.5,80,30.13,10.0,NW,6.9,-,N/A,,Overcast,310,2013-03-02 07:15:00
1:35 AM,28.0,22.6,80,30.13,10.0,NW,6.9,-,N/A,,Overcast,320,2013-03-02 07:35:00
1:55 AM,27.9,22.5,80,30.13,10.0,NNW,8.1,-,N/A,,Overcast,330,2013-03-02 07:55:00
2:15 AM,29.1,23.7,80,30.13,10.0,NNW,3.5,-,N/A,Snow,Light Snow,330,2013-03-02 08:15:00
2:35 AM,30.2,23.0,75,30.13,10.0,NE,3.5,-,N/A,,Overcast,40,2013-03-02 08:35:00
2:55 AM,28.9,23.0,78,30.13,10.0,NNE,6.9,-,N/A,Snow,Light Snow,20,2013-03-02 08:55:00
3:15 AM,28.6,23.0,80,30.12,10.0,East,6.9,-,N/A,Snow,Light Snow,100,2013-03-02 09:15:00
3:35 AM,28.0,22.6,80,30.13,7.0,Calm,Calm,-,N/A,Snow,Light Snow,0,2013-03-02 09:35:00
3:55 AM,28.0,22.1,78,30.13,7.0,NE,8.1,-,N/A,Snow,Light Snow,50,2013-03-02 09:55:00
4:15 AM,28.4,23.9,83,30.13,7.0,NE,8.1,-,N/A,Snow,Light Snow,40,2013-03-02 10:15:00
4:35 AM,28.4,22.5,78,30.13,10.0,North,5.8,-,N/A,,Overcast,10,2013-03-02 10:35:00
4:55 AM,28.4,21.6,76,30.13,10.0,NNE,9.2,-,N/A,Snow,Light Snow,20,2013-03-02 10:55:00
5:15 AM,28.4,21.2,74,30.13,10.0,North,6.9,-,N/A,,Overcast,10,2013-03-02 11:15:00
5:35 AM,28.4,20.3,72,30.13,10.0,North,8.1,-,N/A,,Overcast,10,2013-03-02 11:35:00
5:55 AM,28.4,20.5,72,30.13,10.0,North,6.9,-,N/A,,Overcast,360,2013-03-02 11:55:00
6:15 AM,28.4,20.3,72,30.13,10.0,North,6.9,-,N/A,,Overcast,10,2013-03-02 12:15:00
6:35 AM,28.4,19.4,69,30.13,10.0,North,8.1,16.1,N/A,,Overcast,360,2013-03-02 12:35:00
6:55 AM,28.0,23.0,81,30.14,10.0,North,8.1,-,N/A,Snow,Light Snow,350,2013-03-02 12:55:00
7:15 AM,28.4,21.7,76,30.14,10.0,North,9.2,-,N/A,,Overcast,350,2013-03-02 13:15:00
7:35 AM,27.1,23.4,86,30.14,10.0,NNW,8.1,-,N/A,Snow,Light Snow,330,2013-03-02 13:35:00
7:55 AM,26.8,23.2,86,30.15,10.0,NNW,8.1,-,N/A,Snow,Light Snow,330,2013-03-02 13:55:00
8:15 AM,27.0,22.6,84,30.16,10.0,NNW,9.2,-,N/A,Snow,Light Snow,330,2013-03-02 14:15:00
8:35 AM,26.8,22.1,83,30.16,10.0,NNW,11.5,-,N/A,Snow,Light Snow,330,2013-03-02 14:35:00
8:55 AM,26.6,22.1,83,30.16,5.0,NNW,12.7,-,N/A,Snow,Light Snow,330,2013-03-02 14:55:00
9:15 AM,26.1,21.7,84,30.16,4.0,NNW,8.1,-,N/A,Snow,Light Snow,340,2013-03-02 15:15:00
9:35 AM,26.1,21.7,84,30.16,3.0,NNW,11.5,-,N/A,Snow,Light Snow,340,2013-03-02 15:35:00
9:55 AM,26.6,21.4,81,30.16,4.0,NNW,9.2,-,N/A,Snow,Light Snow,330,2013-03-02 15:55:00
10:15 AM,27.5,21.6,78,30.16,4.0,NW,10.4,-,N/A,Snow,Light Snow,320,2013-03-02 16:15:00
10:35 AM,28.2,20.8,74,30.15,5.0,NW,11.5,-,N/A,Snow,Light Snow,320,2013-03-02 16:35:00
10:55 AM,28.4,19.4,69,30.16,10.0,North,9.2,-,N/A,,Overcast,350,2013-03-02 16:55:00
11:15 AM,29.3,19.9,68,30.15,10.0,NW,10.4,-,N/A,,Overcast,320,2013-03-02 17:15:00
11:35 AM,29.5,19.6,67,30.15,10.0,NNW,12.7,16.1,N/A,,Overcast,330,2013-03-02 17:35:00
11:55 AM,29.5,19.8,67,30.15,7.0,NNW,9.2,-,N/A,Snow,Light Snow,340,2013-03-02 17:55:00
12:15 PM,29.3,20.3,69,30.14,7.0,NNW,8.1,-,N/A,Snow,Light Snow,340,2013-03-02 18:15:00
12:35 PM,29.1,20.3,70,30.14,7.0,NNW,8.1,-,N/A,Snow,Light Snow,340,2013-03-02 18:35:00
12:55 PM,28.9,20.3,70,30.14,7.0,NNW,8.1,-,N/A,Snow,Light Snow,340,2013-03-02 18:55:00
1:15 PM,29.1,20.3,70,30.13,10.0,North,8.1,-,N/A,Snow,Light Snow,10,2013-03-02 19:15:00
1:35 PM,28.9,20.3,70,30.13,7.0,North,8.1,-,N/A,Snow,Light Snow,10,2013-03-02 19:35:00
1:55 PM,29.1,19.8,68,30.13,10.0,North,10.4,-,N/A,Snow,Light Snow,10,2013-03-02 19:55:00
2:15 PM,29.5,20.1,68,30.13,10.0,North,10.4,-,N/A,,Overcast,350,2013-03-02 20:15:00
2:35 PM,30.2,19.4,64,30.13,10.0,North,9.2,17.3,N/A,,Overcast,360,2013-03-02 20:35:00
2:55 PM,29.8,20.1,67,30.13,10.0,NNE,11.5,-,N/A,,Overcast,20,2013-03-02 20:55:00
3:15 PM,30.2,20.5,67,30.13,10.0,North,8.1,-,N/A,,Overcast,360,2013-03-02 21:15:00
3:35 PM,30.2,20.1,66,30.13,10.0,North,11.5,-,N/A,,Overcast,10,2013-03-02 21:35:00
3:55 PM,29.7,19.8,67,30.13,10.0,North,11.5,17.3,N/A,,Overcast,10,2013-03-02 21:55:00
4:15 PM,29.7,19.6,66,30.13,10.0,North,11.5,-,N/A,,Overcast,10,2013-03-02 22:15:00
4:35 PM,29.3,19.4,67,30.14,10.0,North,11.5,16.1,N/A,,Overcast,10,2013-03-02 22:35:00
4:55 PM,28.9,18.7,66,30.14,10.0,North,10.4,17.3,N/A,,Overcast,360,2013-03-02 22:55:00
5:15 PM,28.8,18.1,65,30.14,10.0,North,6.9,-,N/A,,Overcast,10,2013-03-02 23:15:00
5:35 PM,28.4,17.4,63,30.15,10.0,North,9.2,-,N/A,,Overcast,10,2013-03-02 23:35:00
5:55 PM,27.7,18.3,68,30.15,10.0,North,6.9,-,N/A,,Mostly Cloudy,10,2013-03-02 23:55:00
6:15 PM,27.3,18.5,69,30.15,10.0,North,6.9,-,N/A,,Mostly Cloudy,10,2013-03-03 00:15:00
6:35 PM,27.1,17.6,67,30.15,10.0,North,4.6,-,N/A,,Overcast,360,2013-03-03 00:35:00
6:55 PM,27.1,16.9,65,30.15,10.0,North,6.9,-,N/A,,Overcast,10,2013-03-03 00:55:00
7:15 PM,27.0,17.1,66,30.15,10.0,North,8.1,-,N/A,,Mostly Cloudy,10,2013-03-03 01:15:00
7:35 PM,27.1,17.2,66,30.16,10.0,North,5.8,-,N/A,,Overcast,10,2013-03-03 01:35:00
7:55 PM,26.6,17.6,69,30.16,10.0,North,5.8,-,N/A,,Overcast,360,2013-03-03 01:55:00
8:15 PM,27.3,16.2,63,30.16,10.0,North,5.8,-,N/A,,Overcast,360,2013-03-03 02:15:00
8:35 PM,27.1,15.6,62,30.16,10.0,North,8.1,-,N/A,,Overcast,10,2013-03-03 02:35:00
8:55 PM,27.0,15.4,62,30.16,10.0,North,6.9,-,N/A,,Overcast,10,2013-03-03 02:55:00
9:15 PM,26.6,14.9,61,30.17,10.0,North,5.8,-,N/A,,Overcast,360,2013-03-03 03:15:00
9:35 PM,26.6,14.9,61,30.16,10.0,NNW,4.6,-,N/A,,Overcast,330,2013-03-03 03:35:00
9:55 PM,25.0,15.1,66,30.16,10.0,NW,6.9,-,N/A,,Overcast,320,2013-03-03 03:55:00
10:15 PM,23.7,14.7,69,30.16,10.0,NNW,4.6,-,N/A,,Scattered Clouds,340,2013-03-03 04:15:00
10:35 PM,23.0,14.4,70,30.15,10.0,WNW,5.8,-,N/A,,Clear,300,2013-03-03 04:35:00
10:55 PM,22.1,14.9,74,30.15,10.0,WNW,6.9,-,N/A,,Mostly Cloudy,290,2013-03-03 04:55:00
11:15 PM,22.6,14.5,71,30.16,10.0,WNW,6.9,-,N/A,,Mostly Cloudy,300,2013-03-03 05:15:00
11:35 PM,21.4,14.0,73,30.16,10.0,WNW,6.9,-,N/A,,Scattered Clouds,300,2013-03-03 05:35:00
11:55 PM,20.5,13.8,75,30.15,10.0,WNW,4.6,-,N/A,,Scattered Clouds,300,2013-03-03 05:55:00